Current Weather Conditions: station 62152

sailwx.info

Wind from 200 at 20 knots

Wave height 2.5 meters (8 feet), 5 second period

Air temperature 8.8° C
Visibility: greater than 10.8 NM
Dewpoint 3.4° C

Last reported at 2020-Jan-26 02:00 UTC.
Time now 2020-Jan-26 03:44 UTC

Location: N 57°00' E 001°48'.
View on Google Maps.

See reports from other nearby stations

  
Tides and Currents Weather Stations Pressure Air Temp Water Temp Dewpoint Dewpoint Depression Visibility Wind Speed Wind Dir Waves Ship Positions
date/time (UTC)wind fromknots sea level pressurealtimeterstation pressurevisibilityair tempwater tempwave heightnotes
2020-Jan-26 02:00 200 20 10.8 8.8 2.5
2020-Jan-26 01:00 200 20 10.8 7.8 2.2
2020-Jan-26 00:00 200 20 5.4 7.8 2.1
2020-Jan-25 23:00 210 20 5.4 7.8 2.0
2020-Jan-25 22:00 200 19 5.4 7.9 2.1
2020-Jan-25 21:00 200 18 5.4 8.4 2.1
2020-Jan-25 20:00 210 14 10.8 7.9 2.2
2020-Jan-25 19:00 210 17 10.8 7.9 2.3
2020-Jan-25 18:00 220 15 10.8 7.2 2.3
2020-Jan-25 17:00 220 18 10.8 7.2 2.4
2020-Jan-25 16:00 220 18 10.8 7.3 2.5
2020-Jan-25 15:00 220 19 10.8 7.3 2.4
2020-Jan-25 14:00 210 18 10.8 7.5 2.3
2020-Jan-25 13:00 200 20 10.8 7.6 2.1
2020-Jan-25 12:00 200 20 10.8 7.7 2.0
2020-Jan-25 11:00 210 19 10.8 7.8 1.9
2020-Jan-25 10:00 200 21 10.8 7.8 1.8
2020-Jan-25 09:00 200 20 10.8 8.7 1.6
2020-Jan-25 08:00 190 18 10.8 8.8 1.5
2020-Jan-25 07:00 200 13 10.8 9.1 1.5
2020-Jan-25 06:00 200 14 10.8 8.1 1.4
2020-Jan-25 05:00 200 9 10.8 8.3 1.6
2020-Jan-25 04:00 200 9 10.8 8.0 1.7
2020-Jan-25 03:00 200 11 10.8 7.7 1.7
2020-Jan-25 02:00 200 12 10.8 7.4 1.8
2020-Jan-25 01:00 200 13 10.8 8.4 1.8
2020-Jan-25 00:00 210 9 10.8 7.4 1.9
2020-Jan-24 23:00 220 9 27.0 7.6 1.9
2020-Jan-24 22:00 220 7 27.0 7.5 1.8
2020-Jan-24 21:00 250 6 27.0 7.5 1.6
2020-Jan-24 20:00 270 6 27.0 7.6 1.7
2020-Jan-24 19:00 260 6 10.8 7.6 1.7
2020-Jan-24 18:00 260 6 10.8 7.7 1.8
2020-Jan-24 17:00 290 6 10.8 7.8 2.0
2020-Jan-24 16:00 280 6 10.8 7.8 2.2
2020-Jan-24 15:00 290 7 10.8 7.9 2.4
2020-Jan-24 14:00 300 7 10.8 8.0 1.7
2020-Jan-24 13:00 290 6 10.8 7.9 1.8
2020-Jan-24 12:00 270 6 10.8 7.9 1.8
2020-Jan-24 11:00 280 6 10.8 8.0 1.7
2020-Jan-24 10:00 280 6 10.8 8.1 1.7
2020-Jan-24 09:00 290 6 10.8 8.0 1.8
2020-Jan-24 08:00 320 7 10.8 7.4 1.8
2020-Jan-24 07:00 290 6 5.4 8.1 1.6
2020-Jan-24 06:00 290 9 5.4 8.0 1.7
2020-Jan-24 05:00 250 8 5.4 8.0 1.6
2020-Jan-24 04:00 270 8 5.4 8.1 1.5
2020-Jan-24 03:00 250 9 5.4 8.1 1.6